Location: Spor
(46.2167°N, 11.0500°E)
Time: 04:27:31
(UTC+00:00)

Shenzhou-11 Module - Pass Details

Date: 07 June 2020
Orbit: 265 x 286 km, 42.8° (Epoch: 04 July)

Event Time Altitude Azimuth Distance (km) Brightness Sun altitude
Exits shadow 02:24:33 12° 250° (WSW) 950 3.5 -8.7°
Maximum altitude 02:26:25 31° 187° (S) 495 2.2 -8.5°
Drops below altitude 10° 02:28:35 10° 121° (ESE) 1,067 4.5 -8.2°
Sets 02:30:35 0° 110° (ESE) 1,878 5.9 -8.0°
